Regional Weather Roundup
Issued by NWS

Home | Current Version | Previous Version | Text Only | Print | Product List | Glossary Off
Versions: 1 2 3 4 5 6 7 8 9 10 11 12 13 14 15 16 17 18 19 20 21 22 23 24 25 26 27 28 29 30 31 32 33 34 35 36 37 38 39 40 41 42 43 44 45 46 47 48 49 50

000
ASUS43 KBIS 291702
RWRND

NORTH DAKOTA REGIONAL WEATHER ROUNDUP
NATIONAL WEATHER SERVICE BISMARCK ND
1200 PM CDT FRI APR 29 2016

NOTE: "FAIR" INDICATES FEW OR NO CLOUDS BELOW 12,000 FEET WITH NO
SIGNIFICANT WEATHER AND/OR OBSTRUCTIONS TO VISIBILITY.


NDZ001>003-009>011-017-291800-
NORTHWEST NORTH DAKOTA

CITY           SKY/WX    TMP DP  RH WIND       PRES   REMARKS
WILLISTON      CLOUDY    54  27  35 SE14      30.18S
MINOT          SUNNY     58  24  27 VRB7      30.20F
MINOT AFB      SUNNY     54  25  32 E12       30.19F
$$

NDZ018>021-031>035-040>046-291800-
SOUTHWEST NORTH DAKOTA

CITY           SKY/WX    TMP DP  RH WIND       PRES   REMARKS
BISMARCK       SUNNY     55  30  38 NE10      30.16F
DICKINSON      CLOUDY    49  29  46 E15       30.11F
GARRISON         N/A     54  21  27 SE13G22   30.18F
HETTINGER ARPT CLOUDY    51  30  44 E7        30.12R
$$

NDZ004>008-012>016-024-026-027-054-291800-
NORTHEAST NORTH DAKOTA

CITY           SKY/WX    TMP DP  RH WIND       PRES   REMARKS
GRAND FORKS    MOSUNNY   57  32  38 E13       30.22S
GRND FRKS AFB  SUNNY     56  31  37 E12       30.22S
DEVILS LAKE    SUNNY     53  30  41 NE13      30.23S
$$

NDZ022-023-025-028>030-036>039-047>053-291800-
SOUTHEAST NORTH DAKOTA

CITY           SKY/WX    TMP DP  RH WIND       PRES   REMARKS
FARGO          SUNNY     59  33  37 VRB3      30.17F
JAMESTOWN      SUNNY     57  31  37 E9        30.16F
$$





USA.gov is the U.S. government's official web portal to all federal, state and local government web resources and services.